Clarksburg, WV

9:55 PM EST on November 22, 2019 (GMT -0500)
Benedum

Weather History for KCKB - May, 2019

Change the Weather History Date:

Thursday, May 23, 2019

  Actual Average Record
Temperature  
Mean Temperature 76 °F -  
Max Temperature 83 °F 76 °F 92 °F (1941)
Min Temperature 69 °F 50 °F 31 °F (1963)
Cooling Degree Days 11    
Month to date cooling degree days 84  
Year to date cooling degree days 109  
Growing Degree Days 26 (Base 50)    
Moisture  
Dew Point 64 °F    
Average Humidity 64    
Maximum Humidity 73    
Minimum Humidity 55    
Precipitation  
Precipitation 0.09 in - - ()
Month to date precipitation 2.20  
Year to date precipitation 16.33  
Sea Level Pressure  
Sea Level Pressure 30.07 in    
Wind  
Wind Speed 9 mph (SW)    
Max Wind Speed 24 mph    
Max Gust Speed 33 mph    
Visibility 9 miles    
Events Rain , Thunderstorm    
Averages and records for this station are not official NWS values.
T = Trace of Precipitation, MM = Missing Value Source: NWS Daily Summary

Daily Weather History Graph

Daily Weather History Graph

Search for Another Location

Airport or City:

Astronomy

May. 23, 2019 Rise Set
Actual Time 6:01 AM EDT 8:34 PM EDT
Civil Twilight 5:30 AM EDT 9:05 PM EDT
Nautical Twilight 4:51 AM EDT 9:44 PM EDT
Astronomical Twilight 4:09 AM EDT 10:27 PM EDT
Moon 12:16 AM EDT 10:03 AM EDT
Length of Visible Light 15h 35m
Length of Day
14h 33m
Waning Gibbous, 77% of the Moon is Illuminated
May 23
Waning Gibbous
May 26
Last Quarter
Jun 3
New
Jun 10
First Quarter
Jun 17
Full

Hourly Weather History & Observations

Time (EDT) Temp. Heat Index Dew Point Humidity Pressure Visibility Wind Dir Wind Speed Gust Speed Precip Events Conditions
12:53 AM 73.0 °F - 59.0 °F 61% 30.07 in 10.0 mi Calm Calm - N/A   Mostly Cloudy
1:53 AM 71.1 °F - 60.1 °F 68% 30.06 in 10.0 mi Calm Calm - N/A   Overcast
2:53 AM 71.1 °F - 60.1 °F 68% 30.06 in 10.0 mi Calm Calm - N/A   Overcast
3:53 AM 73.0 °F - 60.1 °F 64% 30.07 in 10.0 mi Calm Calm - N/A   Overcast
4:53 AM 72.0 °F - 60.1 °F 66% 30.06 in 10.0 mi South 4.6 mph - N/A   Overcast
5:53 AM 72.0 °F - 60.1 °F 66% 30.07 in 10.0 mi SSW 4.6 mph - N/A   Overcast
6:53 AM 72.0 °F - 60.1 °F 66% 30.09 in 10.0 mi SSW 4.6 mph - N/A   Scattered Clouds
7:53 AM 73.9 °F - 62.1 °F 66% 30.10 in 10.0 mi SSW 6.9 mph - N/A   Mostly Cloudy
8:53 AM 75.9 °F - 62.1 °F 62% 30.10 in 10.0 mi SW 9.2 mph - N/A   Scattered Clouds
9:53 AM 79.0 °F - 64.0 °F 60% 30.10 in 10.0 mi SW 11.5 mph - N/A   Partly Cloudy
10:53 AM 79.0 °F - 63.0 °F 58% 30.09 in 10.0 mi SSW 12.7 mph 24.2 mph 0.00 in Rain Light Rain
11:21 AM 79.0 °F - 63.0 °F 58% 30.13 in 5.0 mi WSW 13.8 mph 21.9 mph 0.03 in Rain , Thunderstorm Light Thunderstorms and Rain
11:24 AM 77.0 °F - 64.0 °F 64% 30.13 in 3.0 mi SW 10.4 mph 21.9 mph 0.03 in Rain , Thunderstorm Light Thunderstorms and Rain
11:26 AM 75.9 °F - 64.9 °F 69% 30.14 in 3.0 mi WSW 11.5 mph 21.9 mph 0.03 in Rain , Thunderstorm Light Thunderstorms and Rain
11:53 AM 72.0 °F - 64.9 °F 78% 30.12 in 4.0 mi West 13.8 mph 33.4 mph 0.09 in Rain Light Rain
12:14 PM 73.0 °F - 66.9 °F 81% 30.15 in 10.0 mi NW 6.9 mph - 0.00 in   Overcast
12:22 PM 75.0 °F - 66.9 °F 76% 30.15 in 10.0 mi NW 10.4 mph 20.7 mph 0.00 in   Mostly Cloudy
12:53 PM 77.0 °F - 66.0 °F 69% 30.12 in 10.0 mi WSW 9.2 mph - 0.00 in   Partly Cloudy
1:53 PM 78.1 °F - 64.9 °F 64% 30.09 in 10.0 mi SW 11.5 mph - N/A   Mostly Cloudy
2:53 PM 80.1 °F 82.1 °F 66.0 °F 62% 30.05 in 10.0 mi South 15.0 mph 19.6 mph N/A   Clear
3:53 PM 80.1 °F 82.1 °F 66.0 °F 62% 30.04 in 10.0 mi SW 13.8 mph - N/A   Mostly Cloudy
4:53 PM 81.0 °F 82.5 °F 64.0 °F 56% 30.02 in 10.0 mi WSW 19.6 mph 26.5 mph N/A   Partly Cloudy
5:53 PM 82.0 °F 83.4 °F 64.0 °F 54% 30.01 in 10.0 mi WSW 16.1 mph 24.2 mph N/A   Partly Cloudy
6:53 PM 80.1 °F 81.9 °F 64.9 °F 60% 30.00 in 10.0 mi WSW 9.2 mph - N/A   Mostly Cloudy
7:53 PM 79.0 °F - 64.9 °F 62% 30.00 in 10.0 mi WSW 11.5 mph 21.9 mph N/A   Partly Cloudy
8:16 PM 78.1 °F - 64.9 °F 64% 30.04 in 10.0 mi SW 10.4 mph - N/A Thunderstorm Partly Cloudy
8:29 PM 78.1 °F - 64.9 °F 64% 30.04 in 10.0 mi SW 10.4 mph - N/A   Scattered Clouds
8:36 PM 78.1 °F - 64.9 °F 64% 30.05 in 10.0 mi WSW 12.7 mph - N/A Thunderstorm Partly Cloudy
8:53 PM 78.1 °F - 64.9 °F 64% 29.99 in 10.0 mi WSW 9.2 mph - N/A   Clear
9:53 PM 77.0 °F - 64.9 °F 66% 30.00 in 10.0 mi WSW 8.1 mph - N/A   Clear
10:53 PM 75.9 °F - 64.0 °F 67% 30.02 in 10.0 mi WSW 9.2 mph - N/A   Clear
11:53 PM 73.9 °F - 64.9 °F 73% 30.02 in 10.0 mi WSW 9.2 mph - N/A   Clear